Flag for Germany Weather past 2 weeks in Barsinghausen, Lower Saxony, Germany

Now
50 °F

Cool.


Feels Like: 47 °F
Forecast: 44 / 53 °F
Wind: 7 mph from West

Location: Wunstorf Airport

Current Time: Oct 23, 2014 at 4:00:09 AM

Latest Report: Oct 23, 2014 at 3:20 AM


Visibility: N/A

Pressure: 30.12 "Hg

Humidity: 76%

Dew point: 43 °F

Location of BarsinghausenLocation

Historic Weather in Barsinghausen — Graph

°F

Barsinghausen temperature yesterday

Maximum temperature yesterday: 50 °F (at 2:48 PM)
Minimum temperature yesterday: 46 °F (at 3:20 AM)
Average temperature yesterday: 48 °F

Past Weeks' High & Low Weather Summary

 TemperatureHumidityPressure
High73 °F (Oct 19, 2:20 PM)100% (Oct 9, 3:20 AM)30.15 "Hg (Oct 9, 3:20 AM)
Low46 °F (Oct 8, 5:20 AM)49% (Oct 14, 3:20 PM)29.42 "Hg (Oct 21, 6:20 PM)
Average56 °F86%29.83 "Hg
* Reported Oct 8 2:20 AM — Oct 23 2:20 AM, Barsinghausen, Weather by CustomWeather, © 2014

Note: Actual official high and low records may vary slightly from our data, if they occured in-between our weather recording intervals... More about our weather records

Advertising

Barsinghausen weather history for previous 24 hours

 ConditionsComfort  
Time TempWeatherWind HumidityBarometerVisibility
2:20 AM
Oct 23
50 °FCool.7 mph76%30.09 "HgN/A
1:20 AM50 °FCool.14 mph76%30.07 "HgN/A
12:20 AM50 °FCool.10 mph76%30.07 "HgN/A
11:20 PM
Oct 22
50 °FCool.12 mph76%30.07 "Hg6 mi
10:20 PM50 °FCool.15 mph82%30.07 "Hg5 mi
9:20 PM50 °FCool.13 mph82%30.04 "Hg4 mi
8:20 PM50 °FCool.16 mph88%30.01 "Hg4 mi
7:20 PM48 °FPassing clouds.17 mph94%29.98 "Hg4 mi
6:20 PM48 °FDrizzle. Fog.17 mph94%29.95 "Hg2 mi
5:20 PM50 °FDrizzle. Fog.17 mph88%29.89 "Hg3 mi
4:20 PM50 °FDrizzle. Partly sunny.22 mph94%29.86 "Hg4 mi
3:20 PM50 °FDrizzle. Fog.23 mph94%29.83 "Hg3 mi
2:48 PM50 °FDrizzle. Fog.23 mph94%29.83 "Hg3 mi
2:20 PM48 °FDrizzle. Fog.22 mph100%29.80 "Hg2 mi
2:00 PM48 °FDrizzle. Fog.21 mph100%29.80 "Hg2 mi
1:20 PM48 °FDrizzle. Fog.23 mph94%29.77 "Hg2 mi
12:20 PM48 °FRain. Fog.29 mph94%29.74 "Hg3 mi
11:49 AM48 °FRain. Broken clouds.28 mph87%29.74 "Hg4 mi
11:20 AM48 °FRain. Broken clouds.24 mph87%29.71 "Hg4 mi
10:20 AM46 °FSprinkles. Broken clouds.21 mph93%29.74 "Hg4 mi
9:20 AM46 °FPartly sunny.21 mph87%29.74 "HgN/A
8:20 AM46 °FSprinkles. Partly cloudy.17 mph87%29.71 "HgN/A
7:20 AM48 °FPassing clouds.17 mph82%29.68 "HgN/A
6:20 AM48 °FPassing clouds.18 mph87%29.68 "HgN/A
5:20 AM48 °FPartly cloudy.20 mph87%29.65 "HgN/A
4:20 AM46 °FCool.14 mph93%29.65 "Hg2 mi
Weather by CustomWeather, © 2014

See weather overviewHow to use our weather pages